Home   Weather   Ahlen   Past weeks
Flag for Germany

Past Weather in Ahlen, North Rhine-Westphalia, Germany — Yesterday and Last 2 Weeks

Now
50 °F

Clear.


Feels Like: 50 °F
Forecast: 65 / 49 °F
Wind: 2 mph from North

Location: Dortmund / Wickede

Current Time: Apr 8, 2020 at 5:40:47 am

Latest Report: Apr 8, 2020 at 4:50 am


Visibility: N/A

Pressure: 30.30 "Hg

Humidity: 82%

Dew Point: 45 °F

Location of AhlenLocation

Past Weather in Ahlen — Graph

°F

Ahlen Temperature Yesterday

Maximum temperature yesterday: 66 °F (at 5:20 pm)
Minimum temperature yesterday: 46 °F (at 5:20 am)
Average temperature yesterday: 56 °F

High & Low Weather Summary for the Past Weeks

 TemperatureHumidityPressure
High73 °F (Apr 6, 4:50 pm)100% (Mar 30, 9:20 pm)30.51 "Hg (Mar 30, 9:20 pm)
Low21 °F (Mar 30, 7:20 am)17% (Mar 24, 3:20 pm)29.83 "Hg (Apr 2, 11:50 pm)
Average44 °F59%30.22 "Hg
* Reported Mar 24 3:20 am — Apr 8 4:20 am, Ahlen. Weather by CustomWeather, © 2020

Note: Actual official high and low records may vary slightly from our data, if they occured in-between our weather recording intervals... More about our weather records

Ahlen Weather History for the Previous 24 Hours

Scroll right to see more
 ConditionsComfort  
Time TempWeatherWind HumidityBarometerVisibility
4:20 am
Wed, Apr 8
50 °FClear.2 mph82%30.33 "HgN/A
3:50 am54 °FClear.1 mph77%30.33 "HgN/A
3:20 am50 °FClear.2 mph76%30.33 "HgN/A
2:50 am54 °FClear.2 mph77%30.33 "HgN/A
2:20 am50 °FClear.5 mph76%30.36 "HgN/A
1:50 am54 °FClear.5 mph72%30.36 "HgN/A
1:20 am52 °FClear.6 mph77%30.36 "HgN/A
12:50 am52 °FClear.5 mph77%30.36 "HgN/A
12:20 am52 °FClear.3 mph77%30.36 "HgN/A
11:50 pm
Tue, Apr 7
54 °FClear.6 mph72%30.36 "HgN/A
11:20 pm54 °FClear.7 mph72%30.36 "HgN/A
10:50 pm54 °FClear.5 mph72%30.39 "HgN/A
10:20 pm55 °FClear.3 mph67%30.39 "HgN/A
9:20 pm59 °FClear.3 mph59%30.39 "HgN/A
8:50 pm59 °FClear.3 mph59%30.39 "HgN/A
8:20 pm59 °FClear.5 mph59%30.36 "HgN/A
7:50 pm63 °FSunny.5 mph52%30.36 "HgN/A
7:20 pm64 °FSunny.7 mph52%30.39 "HgN/A
6:50 pm64 °FSunny.8 mph52%30.39 "HgN/A
6:20 pm64 °FSunny.9 mph52%30.39 "HgN/A
5:50 pm64 °FSunny.9 mph52%30.39 "HgN/A
5:20 pm66 °FSunny.9 mph49%30.39 "HgN/A
4:50 pm64 °FSunny.10 mph52%30.42 "HgN/A
4:20 pm64 °FSunny.7 mph49%30.42 "HgN/A
3:20 pm63 °FPassing clouds.8 mph56%30.42 "HgN/A
2:50 pm63 °FPassing clouds.7 mph56%30.45 "HgN/A
2:20 pm63 °FScattered clouds.7 mph56%30.45 "HgN/A
1:50 pm61 °FPassing clouds.7 mph59%30.45 "HgN/A
1:20 pm61 °FScattered clouds.6 mph59%30.45 "HgN/A
12:50 pm59 °FPartly sunny.6 mph68%30.48 "HgN/A
12:20 pm59 °FScattered clouds.7 mph68%30.48 "HgN/A
11:50 am61 °FPartly sunny.7 mph63%30.48 "HgN/A
11:20 am59 °FPartly sunny.7 mph68%30.48 "HgN/A
10:50 am55 °FPassing clouds.6 mph77%30.48 "HgN/A
10:20 am55 °FMostly cloudy.2 mph77%30.45 "HgN/A
9:50 am55 °FMostly cloudy.1 mph77%30.45 "HgN/A
9:20 am54 °FMostly cloudy.2 mph82%30.45 "HgN/A
8:50 am54 °FMostly cloudy.2 mph82%30.45 "HgN/A
8:20 am52 °FOvercast.3 mph88%30.45 "HgN/A
7:50 am50 °FMostly cloudy.3 mph94%30.42 "HgN/A
7:20 am50 °FOvercast.5 mph94%30.42 "HgN/A
6:50 am48 °FScattered clouds.3 mph87%30.39 "HgN/A
6:20 am50 °FClear.3 mph88%30.39 "HgN/A
5:50 am48 °FPassing clouds.5 mph87%30.39 "HgN/A
5:20 am46 °FPassing clouds.3 mph93%30.36 "HgN/A
Weather by CustomWeather, © 2020

See weather overview

Advertising